Weather History for Pecos, TX

Change the Weather History Date:

Monday, August 11, 2014

  Actual Average Record
Temperature  
Mean Temperature 82 °F -  
Max Temperature 90 °F 96 °F 108 °F (1968)
Min Temperature 73 °F 67 °F 57 °F (1915)
Cooling Degree Days 16    
Growing Degree Days 32 (Base 50)    
Moisture  
Dew Point 58 °F    
Average Humidity 45    
Maximum Humidity 59    
Minimum Humidity 34    
Precipitation  
Precipitation 0.00 in - - ()
Sea Level Pressure  
Sea Level Pressure 30.14 in    
Wind  
Wind Speed 9 mph (ENE)    
Max Wind Speed 22 mph    
Max Gust Speed 26 mph    
Visibility 10 miles    
Events      
Averages and records for this station are not official NWS values.
T = Trace of Precipitation, MM = Missing Value Source: NWS Daily Summary

Daily Weather History Graph

Daily Weather History Graph

Search for Another Location

Airport:

Trip Planner

Search our weather history database for the weather conditions in past years. The results will help you decide how hot, cold, wet, or windy it might be!

Date:

Astronomy

Aug. 11, 2014 Rise Set
Actual Time 7:16 AM CDT 8:40 PM CDT
Civil Twilight 6:51 AM CDT 9:06 PM CDT
Nautical Twilight 6:20 AM CDT 9:37 PM CDT
Astronomical Twilight 5:48 AM CDT 10:09 PM CDT
Moon 9:20 PM CDT (8/11) 8:17 AM CDT (8/11)
Length of Visible Light 14h 15m
Length of Day
13h 23m
Full, 99% of the Moon is Illuminated
Aug 11
Full
Aug 17
Last Quarter
Aug 25
New
Sep 2
First Quarter
Sep 8
Full

Hourly Weather History & Observations

Time (CDT) Temp. Heat Index Dew Point Humidity Pressure Visibility Wind Dir Wind Speed Gust Speed Precip Events Conditions
12:15 AM 83.3 °F 82.5 °F 55.6 °F 39% 30.11 in 10.0 mi ESE 9.2 mph - N/A   Clear
12:35 AM 82.8 °F 82.0 °F 55.8 °F 39% 30.11 in 10.0 mi ESE 8.1 mph - N/A   Clear
12:55 AM 81.9 °F 81.3 °F 55.6 °F 40% 30.11 in 10.0 mi ESE 5.8 mph - N/A   Clear
1:15 AM 80.4 °F 80.5 °F 55.8 °F 43% 30.10 in 10.0 mi SE 5.8 mph - N/A   Clear
1:35 AM 79.3 °F - 55.8 °F 44% 30.10 in 10.0 mi SE 4.6 mph - N/A   Clear
1:55 AM 78.3 °F - 55.8 °F 46% 30.11 in 10.0 mi SE 4.6 mph - N/A   Clear
2:15 AM 78.1 °F - 55.6 °F 46% 30.11 in 10.0 mi East 3.5 mph - N/A   Clear
2:35 AM 76.8 °F - 55.4 °F 47% 30.11 in 10.0 mi East 4.6 mph - N/A   Clear
3:15 AM 75.2 °F - 55.4 °F 50% 30.11 in 10.0 mi NE 5.8 mph - N/A   Clear
3:35 AM 74.3 °F - 55.9 °F 53% 30.11 in 10.0 mi NNE 5.8 mph - N/A   Clear
3:55 AM 73.9 °F - 55.8 °F 53% 30.11 in 10.0 mi NNE 5.8 mph - N/A   Clear
4:15 AM 75.2 °F - 56.3 °F 52% 30.11 in 10.0 mi NNE 8.1 mph - N/A   Clear
4:35 AM 75.2 °F - 56.5 °F 52% 30.12 in 10.0 mi NNE 6.9 mph - N/A   Clear
4:55 AM 75.6 °F - 56.3 °F 51% 30.12 in 10.0 mi NE 5.8 mph - N/A   Clear
5:15 AM 75.2 °F - 56.5 °F 52% 30.12 in 10.0 mi NNE 5.8 mph - N/A   Clear
5:35 AM 74.7 °F - 56.7 °F 53% 30.12 in 10.0 mi NE 5.8 mph - N/A   Clear
5:55 AM 74.3 °F - 56.8 °F 54% 30.12 in 10.0 mi NE 6.9 mph - N/A   Clear
6:15 AM 74.7 °F - 57.7 °F 55% 30.12 in 10.0 mi NE 5.8 mph - N/A   Clear
6:35 AM 75.2 °F - 58.6 °F 56% 30.12 in 10.0 mi NE 8.1 mph - N/A   Clear
6:55 AM 75.2 °F - 59.0 °F 57% 30.13 in 10.0 mi NE 6.9 mph - N/A   Clear
7:15 AM 76.1 °F - 59.2 °F 56% 30.14 in 10.0 mi NE 8.1 mph - N/A   Clear
7:35 AM 76.1 °F - 59.2 °F 56% 30.15 in 10.0 mi NE 5.8 mph - N/A   Clear
7:55 AM 76.1 °F - 59.4 °F 56% 30.15 in 7.0 mi NE 4.6 mph - N/A   Scattered Clouds
8:15 AM 77.0 °F - 60.3 °F 56% 30.16 in 10.0 mi NNE 15.0 mph - N/A   Mostly Cloudy
8:35 AM 75.9 °F - 60.8 °F 59% 30.17 in 10.0 mi NNE 18.4 mph - N/A   Scattered Clouds
8:55 AM 76.5 °F - 60.8 °F 58% 30.18 in 10.0 mi NNE 16.1 mph 23.0 mph N/A   Clear
9:35 AM 79.0 °F - 60.8 °F 54% 30.19 in 10.0 mi NNE 17.3 mph 23.0 mph N/A   Clear
9:55 AM 79.7 °F - 60.1 °F 51% 30.19 in 10.0 mi NE 17.3 mph 21.9 mph N/A   Clear
10:15 AM 81.1 °F 81.8 °F 60.1 °F 49% 30.19 in 10.0 mi NE 17.3 mph 23.0 mph N/A   Clear
10:35 AM 82.4 °F 82.6 °F 59.9 °F 46% 30.19 in 10.0 mi NE 16.1 mph 23.0 mph N/A   Clear
10:55 AM 84.0 °F 83.8 °F 59.4 °F 43% 30.19 in 10.0 mi NE 17.3 mph - N/A   Clear
11:15 AM 83.7 °F 83.6 °F 59.4 °F 44% 30.19 in 10.0 mi NNE 16.1 mph 20.7 mph N/A   Clear
11:35 AM 86.4 °F 85.6 °F 59.0 °F 39% 30.20 in 10.0 mi NE 13.8 mph 19.6 mph N/A   Clear
11:55 AM 86.2 °F 85.2 °F 58.1 °F 38% 30.20 in 10.0 mi NE 13.8 mph - N/A   Clear
12:15 PM 87.1 °F 86.1 °F 58.1 °F 37% 30.20 in 10.0 mi East 11.5 mph - N/A   Clear
12:35 PM 86.0 °F 85.2 °F 58.1 °F 39% 30.19 in 10.0 mi East 6.9 mph 10.4 mph N/A   Clear
12:55 PM 86.9 °F 85.9 °F 57.7 °F 37% 30.19 in 10.0 mi ENE 12.7 mph 19.6 mph N/A   Clear
1:15 PM 89.8 °F 88.6 °F 58.3 °F 34% 30.18 in 10.0 mi ENE 9.2 mph - N/A   Clear
1:35 PM 88.3 °F 87.3 °F 58.1 °F 36% 30.17 in 10.0 mi ENE 6.9 mph 16.1 mph N/A   Clear
1:55 PM 89.2 °F 88.2 °F 58.1 °F 35% 30.17 in 10.0 mi East 11.5 mph 16.1 mph N/A   Clear
2:15 PM 88.3 °F 87.1 °F 57.4 °F 35% 30.16 in 10.0 mi ENE 4.6 mph - N/A   Clear
2:35 PM 89.6 °F 88.4 °F 57.9 °F 34% 30.16 in 10.0 mi NE 5.8 mph - N/A   Clear
3:35 PM 89.4 °F 88.4 °F 58.3 °F 35% 30.13 in 10.0 mi NE 10.4 mph - N/A   Clear
3:55 PM 89.8 °F 88.6 °F 58.3 °F 34% 30.12 in 10.0 mi North 5.8 mph - N/A   Clear
4:15 PM 90.1 °F 89.1 °F 58.1 °F 34% 30.12 in 10.0 mi NNE 5.8 mph - N/A   Clear
5:15 PM 90.0 °F 89.4 °F 59.4 °F 36% 30.09 in 10.0 mi East 21.9 mph 26.5 mph N/A   Clear
5:55 PM 88.0 °F 87.4 °F 59.2 °F 38% 30.09 in 10.0 mi ENE 17.3 mph - N/A   Clear
6:35 PM 88.0 °F 87.6 °F 59.9 °F 39% 30.09 in 10.0 mi East 11.5 mph 19.6 mph N/A   Clear
6:55 PM 88.9 °F 88.0 °F 58.8 °F 36% 30.08 in 10.0 mi East 11.5 mph 18.4 mph N/A   Clear
7:15 PM 88.3 °F 87.3 °F 58.5 °F 36% 30.08 in 10.0 mi ENE 13.8 mph - N/A   Clear
7:35 PM 87.3 °F 86.3 °F 58.1 °F 37% 30.09 in 10.0 mi East 11.5 mph - N/A   Clear
7:55 PM 85.6 °F 84.8 °F 58.1 °F 39% 30.10 in 10.0 mi East 10.4 mph - N/A   Clear
8:15 PM 84.9 °F 84.2 °F 58.1 °F 40% 30.11 in 10.0 mi East 12.7 mph - N/A   Clear
8:35 PM 84.2 °F 83.7 °F 58.1 °F 41% 30.12 in 10.0 mi East 11.5 mph - N/A   Clear
8:55 PM 83.3 °F 82.9 °F 58.1 °F 42% 30.12 in 10.0 mi East 8.1 mph - N/A   Clear